User: anonymous   Login
Location: Catstown
(52.4386°N, 7.2633°W)
Time: 13:21:30
(UTC+00:00)
Language:

CZ-2C R/B - Orbit

View from above orbital plane
View from above orbital plane
View from above satellite
View from above satellite

Ground track
Ground track

The orbit data is extracted from the following two-line orbital elements,

1 37766U 11039B   21135.68161713  .00000113  00000-0  29403-4 0  9995
2 37766  98.3376   1.0863 0046720  60.5878 299.9977 14.66564331524112
Epoch (UTC): 15 May 2021 16:21:31
Eccentricity: 0.0046720
inclination: 98.3376°
perigee height: 639 km
apogee height: 705 km
right ascension of ascending node: 1.0863°
argument of perigee: 60.5878°
revolutions per day: 14.66564331
mean anomaly at epoch: 299.9977°
orbit number at epoch: 52411

The dashed part of the orbit path shows where the satellite is in the earth's shadow,  

DLR